| time (UTC) | temp F | wind direction | speed MPH | gust MPH | rain 1hr in | rain 24hr in | rain mn in | humidity % | barometer mb |
| 20260507144513 | 55 | 348 | 0.0 | 2.0 | 0.00 | 0.00 | 0.00 | 44 | 1012.9 |
| 20260507143012 | 54 | 281 | 0.0 | 2.0 | 0.00 | 0.00 | 0.00 | 45 | 1013.1 |
| 20260507141510 | 54 | 311 | 0.0 | 2.0 | 0.00 | 0.00 | 0.00 | 49 | 1013.1 |
| 20260507140018 | 54 | 96 | 0.0 | 1.0 | 0.00 | 0.00 | 0.00 | 48 | 1013.2 |
| 20260507134508 | 54 | 27 | 0.0 | 2.0 | 0.00 | 0.00 | 0.00 | 51 | 1013.4 |
| 20260507133008 | 54 | 257 | 0.0 | 0.0 | 0.00 | 0.00 | 0.00 | 52 | 1013.5 |
| 20260507131505 | 54 | 278 | 0.0 | 0.0 | 0.00 | 0.00 | 0.00 | 53 | 1013.3 |
| 20260507130005 | 54 | 271 | 0.0 | 0.0 | 0.00 | 0.00 | 0.00 | 55 | 1013.2 |
| 20260507124509 | 54 | 257 | 0.0 | 2.0 | 0.00 | 0.00 | 0.00 | 56 | 1013.1 |
| 20260507123002 | 54 | 288 | 0.0 | 1.0 | 0.00 | 0.00 | 0.00 | 55 | 1013.2 |
| 20260507121601 | 54 | 271 | 0.0 | 1.0 | 0.00 | 0.00 | 0.00 | 56 | 1013.3 |
| 20260507120059 | 55 | 266 | 0.0 | 1.0 | 0.00 | 0.00 | 0.00 | 50 | 1013.1 |
| 20260507114556 | 55 | 259 | 0.0 | 2.0 | 0.00 | 0.00 | 0.00 | 52 | 1012.9 |
| 20260507113054 | 56 | 3 | 0.0 | 0.0 | 0.00 | 0.00 | 0.00 | 52 | 1012.6 |
| 20260507111551 | 0 | 0.0 | 0.0 | 0.00 | 0.00 | 0.00 | 1012.6 | ||
| 20260507110051 | 0 | 0.0 | 0.0 | 0.00 | 0.00 | 0.00 | 1012.5 | ||
| 20260507104543 | 0 | 0.0 | 0.0 | 0.00 | 0.00 | 0.00 | 1012.5 | ||
| 20260507103039 | 0 | 0.0 | 0.0 | 0.00 | 0.00 | 0.00 | 1012.3 | ||
| 20260507101553 | 0 | 65 | 0.0 | 4.0 | 0.00 | 0.00 | 0.00 | 1012.3 | |
| 20260507100034 | 55 | 279 | 0.0 | 2.0 | 0.00 | 0.00 | 0.00 | 62 | 1012.1 |
| 20260507094530 | 55 | 96 | 0.0 | 2.0 | 0.00 | 0.00 | 0.00 | 61 | 1011.9 |
| 20260507093032 | 55 | 84 | 0.0 | 1.0 | 0.00 | 0.00 | 0.00 | 62 | 1012.0 |
| 20260507091627 | 55 | 225 | 0.0 | 2.0 | 0.00 | 0.00 | 0.00 | 64 | 1011.7 |
| 20260507090024 | 55 | 342 | 0.0 | 2.0 | 0.00 | 0.00 | 0.00 | 63 | 1011.6 |
| 20260507084527 | 55 | 73 | 0.0 | 2.0 | 0.00 | 0.00 | 0.00 | 64 | 1011.8 |
| 20260507083025 | 54 | 139 | 0.0 | 3.0 | 0.00 | 0.00 | 0.00 | 64 | 1011.6 |
| 20260507081525 | 54 | 159 | 0.0 | 0.0 | 0.00 | 0.00 | 0.00 | 66 | 1011.6 |
| 20260507080020 | 54 | 270 | 0.0 | 1.0 | 0.00 | 0.00 | 0.00 | 64 | 1011.2 |
| 20260507074519 | 54 | 276 | 0.0 | 2.0 | 0.00 | 0.00 | 0.00 | 64 | 1011.0 |
| 20260507073019 | 54 | 125 | 0.0 | 2.0 | 0.00 | 0.00 | 0.00 | 65 | 1011.1 |
| 20260507071517 | 54 | 256 | 0.0 | 6.0 | 0.00 | 0.00 | 0.00 | 65 | 1011.0 |
| 20260507070016 | 54 | 103 | 0.0 | 6.0 | 0.00 | 0.00 | 0.00 | 65 | 1010.9 |
| 20260507064515 | 55 | 255 | 0.0 | 4.0 | 0.00 | 0.00 | 0.00 | 65 | 1011.1 |
| 20260507063014 | 55 | 285 | 0.0 | 2.0 | 0.00 | 0.00 | 0.00 | 66 | 1011.1 |
| 20260507061527 | 55 | 342 | 0.0 | 3.0 | 0.00 | 0.00 | 0.00 | 67 | 1011.2 |
| 20260507060011 | 55 | 26 | 0.0 | 5.0 | 0.00 | 0.00 | 0.00 | 67 | 1010.8 |
| 20260507054508 | 56 | 36 | 0.0 | 2.0 | 0.00 | 0.00 | 0.00 | 70 | 1011.0 |
| 20260507053006 | 57 | 282 | 0.0 | 2.0 | 0.00 | 0.00 | 0.00 | 69 | 1011.2 |
| 20260507051504 | 57 | 259 | 0.0 | 1.0 | 0.00 | 0.00 | 0.00 | 69 | 1010.9 |
| 20260507050003 | 57 | 345 | 0.0 | 1.0 | 0.00 | 0.00 | 0.00 | 69 | 1010.6 |
| 20260507044604 | 58 | 284 | 0.0 | 1.0 | 0.00 | 0.00 | 0.00 | 69 | 1011.2 |
| 20260507043056 | 59 | 162 | 0.0 | 4.0 | 0.00 | 0.00 | 0.00 | 66 | 1011.1 |
| 20260507041553 | 60 | 323 | 1.0 | 5.0 | 0.00 | 0.00 | 0.00 | 64 | 1011.1 |
| 20260507040051 | 60 | 324 | 0.0 | 1.0 | 0.00 | 0.00 | 0.00 | 65 | 1010.7 |
| 20260507034550 | 60 | 252 | 0.0 | 3.0 | 0.00 | 0.00 | 0.00 | 64 | 1010.5 |
| 20260507033048 | 61 | 196 | 1.0 | 5.0 | 0.00 | 0.00 | 0.00 | 63 | 1010.7 |
| 20260507031547 | 62 | 330 | 1.0 | 6.0 | 0.00 | 0.00 | 0.00 | 61 | 1010.8 |
| 20260507030050 | 63 | 119 | 0.0 | 0.0 | 0.00 | 0.00 | 0.00 | 64 | 1010.2 |
| 20260507024546 | 63 | 86 | 0.0 | 7.0 | 0.00 | 0.00 | 0.00 | 63 | 1009.5 |
| 20260507023045 | 64 | 313 | 0.0 | 3.0 | 0.00 | 0.00 | 0.00 | 63 | 1010.0 |
| 20260507021546 | 64 | 8 | 1.0 | 5.0 | 0.00 | 0.00 | 0.00 | 64 | 1009.7 |
| 20260507020051 | 65 | 280 | 0.0 | 2.0 | 0.00 | 0.00 | 0.00 | 65 | 1009.4 |
| 20260507014557 | 65 | 261 | 0.0 | 2.0 | 0.00 | 0.00 | 0.00 | 65 | 1009.4 |
| 20260507013043 | 65 | 251 | 0.0 | 3.0 | 0.00 | 0.00 | 0.00 | 66 | 1009.2 |
| 20260507011542 | 65 | 274 | 0.0 | 2.0 | 0.00 | 0.00 | 0.00 | 69 | 1009.7 |
| 20260507010045 | 66 | 162 | 0.0 | 0.0 | 0.00 | 0.00 | 0.00 | 70 | 1009.6 |
| 20260507004543 | 66 | 161 | 0.0 | 0.0 | 0.00 | 0.00 | 0.00 | 70 | 1009.3 |
| 20260507003040 | 66 | 161 | 0.0 | 0.0 | 0.00 | 0.00 | 0.00 | 70 | 1009.2 |
| 20260507001540 | 66 | 161 | 0.0 | 0.0 | 0.00 | 0.00 | 0.00 | 69 | 1009.1 |
| 20260507000043 | 67 | 161 | 0.0 | 0.0 | 0.00 | 0.00 | 0.00 | 68 | 1008.8 |
| 20260506234539 | 68 | 161 | 0.0 | 0.0 | 0.00 | 0.00 | 0.00 | 67 | 1008.8 |
| 20260506233039 | 69 | 161 | 0.0 | 0.0 | 0.00 | 0.00 | 0.00 | 65 | 1008.5 |
| 20260506231538 | 70 | 154 | 0.0 | 0.0 | 0.00 | 0.00 | 0.00 | 63 | 1008.2 |
| 20260506230037 | 69 | 147 | 0.0 | 3.0 | 0.00 | 0.00 | 0.00 | 63 | 1008.1 |
| 20260506224538 | 70 | 321 | 0.0 | 7.0 | 0.00 | 0.00 | 0.00 | 62 | 1008.1 |
| 20260506223037 | 71 | 174 | 0.0 | 4.0 | 0.00 | 0.00 | 0.00 | 61 | 1008.0 |
| 20260506221534 | 71 | 134 | 0.0 | 3.0 | 0.00 | 0.00 | 0.00 | 61 | 1008.0 |
| 20260506220038 | 71 | 158 | 0.0 | 4.0 | 0.00 | 0.00 | 0.00 | 61 | 1008.0 |
| 20260506214534 | 70 | 139 | 0.0 | 3.0 | 0.00 | 0.00 | 0.00 | 62 | 1008.0 |
| 20260506213034 | 71 | 131 | 0.0 | 4.0 | 0.00 | 0.00 | 0.00 | 61 | 1008.0 |
| 20260506211533 | 71 | 189 | 1.0 | 5.0 | 0.00 | 0.00 | 0.00 | 61 | 1008.0 |
| 20260506210033 | 71 | 140 | 1.0 | 5.0 | 0.00 | 0.00 | 0.00 | 61 | 1007.8 |
| 20260506204532 | 70 | 162 | 1.0 | 5.0 | 0.00 | 0.00 | 0.00 | 61 | 1007.7 |
| 20260506203031 | 70 | 167 | 1.0 | 6.0 | 0.00 | 0.00 | 0.00 | 62 | 1007.6 |
| 20260506201541 | 69 | 176 | 1.0 | 5.0 | 0.00 | 0.00 | 0.00 | 62 | 1007.7 |
| 20260506200029 | 69 | 147 | 2.0 | 7.0 | 0.00 | 0.00 | 0.00 | 62 | 1007.9 |
| 20260506194529 | 69 | 171 | 1.0 | 8.0 | 0.00 | 0.00 | 0.00 | 62 | 1007.8 |
| 20260506193027 | 69 | 209 | 0.0 | 8.0 | 0.00 | 0.00 | 0.00 | 63 | 1007.8 |
| 20260506191525 | 68 | 162 | 1.0 | 7.0 | 0.00 | 0.00 | 0.00 | 63 | 1007.8 |
| 20260506190023 | 68 | 142 | 3.0 | 10.0 | 0.00 | 0.00 | 0.00 | 62 | 1008.1 |
| 20260506184521 | 67 | 154 | 0.0 | 5.0 | 0.00 | 0.00 | 0.00 | 64 | 1008.4 |
| 20260506183022 | 67 | 96 | 0.0 | 4.0 | 0.00 | 0.00 | 0.00 | 63 | 1008.6 |
| 20260506181519 | 66 | 142 | 0.0 | 3.0 | 0.00 | 0.00 | 0.00 | 64 | 1008.5 |
| 20260506180018 | 66 | 156 | 1.0 | 6.0 | 0.00 | 0.00 | 0.00 | 63 | 1008.8 |
| 20260506174517 | 65 | 107 | 2.0 | 7.0 | 0.00 | 0.00 | 0.00 | 64 | 1008.7 |
| 20260506173016 | 65 | 162 | 2.0 | 7.0 | 0.00 | 0.00 | 0.00 | 64 | 1008.8 |
| 20260506171516 | 64 | 142 | 1.0 | 8.0 | 0.00 | 0.00 | 0.00 | 65 | 1008.9 |
| 20260506170015 | 64 | 141 | 2.0 | 6.0 | 0.00 | 0.00 | 0.00 | 66 | 1008.9 |
| 20260506164512 | 64 | 117 | 2.0 | 5.0 | 0.00 | 0.00 | 0.00 | 67 | 1009.0 |
| 20260506163022 | 63 | 146 | 1.0 | 8.0 | 0.00 | 0.00 | 0.00 | 68 | 1009.3 |
| 20260506161511 | 62 | 36 | 1.0 | 11.0 | 0.00 | 0.00 | 0.00 | 70 | 1009.2 |
| 20260506160014 | 62 | 338 | 1.0 | 10.0 | 0.00 | 0.00 | 0.00 | 72 | 1009.1 |
| 20260506154508 | 62 | 153 | 2.0 | 6.0 | 0.00 | 0.00 | 0.00 | 76 | 1009.2 |
| 20260506153007 | 61 | 172 | 2.0 | 6.0 | 0.00 | 0.00 | 0.00 | 79 | 1009.3 |
| 20260506151507 | 60 | 151 | 2.0 | 4.0 | 0.00 | 0.00 | 0.00 | 79 | 1009.4 |
| 20260506150007 | 60 | 274 | 1.0 | 4.0 | 0.00 | 0.00 | 0.00 | 77 | 1009.8 |